Regional Weather Roundup
Issued by NWS Upton, NY

Current Version | Previous Version | Text Only | Print | Product List | Glossary On
Versions: 1 2 3 4 5 6 7 8 9 10 11 12 13 14 15 16 17 18 19 20 21 22 23 24 25 26 27 28 29 30 31 32 33 34 35 36 37 38 39 40 41 42 43 44 45 46 47 48 49 50
000 ASUS41 KOKX 242208 RWROKX REGIONAL WEATHER ROUNDUP NATIONAL WEATHER SERVICE NEW YORK NY 500 PM EST FRI FEB 24 2017 NOTE: "FAIR" INDICATES FEW OR NO CLOUDS BELOW 12,000 FEET WITH NO SIGNIFICANT WEATHER AND/OR OBSTRUCTIONS TO VISIBILITY. NYZ071-072-176-178-NJZ106-104-242300- NEW YORK CITY METRO AREA CITY SKY/WX TMP DP RH WIND PRES REMARKS Central Park PTCLDY 65 52 62 S8 29.88F Wall St Helipt NOT AVBL LaGuardia APRT PTCLDY 66 52 60 S18G26 29.85F Kennedy INTL MOCLDY 56 53 90 S21 29.88F Breezy Point N/A 48 N/A N/A S18 N/A Newark/Liberty MOCLDY 68 53 58 S10 29.84F Teterboro PTCLDY 68 53 58 S8 29.84S $$ NYZ177-179-078>081-242300- LONG ISLAND NEW YORK CITY SKY/WX TMP DP RH WIND PRES REMARKS Jones Beach N/A 48 N/A N/A S13G18 N/A Matinecock PT NOT AVBL Farmingdale PTCLDY 57 52 83 S12 29.90S MacArthur/ISP MOCLDY 54 52 93 S12 29.90S Shirley CLEAR 55 53 93 SW9 29.92R Westhampton CLEAR 53 49 86 S7 29.93S Southampton NOT AVBL Bridgehampton NOT AVBL East Hampton N/A 53 49 88 SW8 29.92S Montauk N/A 52 50 93 S8 29.94S $$ NYZ052-065-067-242300- HUDSON VALLEY CITY SKY/WX TMP DP RH WIND PRES REMARKS White Plains PTCLDY 63 52 67 S10 29.87S Newburgh PTCLDY 68 55 64 S17 29.84S Montgomery CLEAR 72 52 49 S12 29.79F Poughkeepsie PTCLDY 69 52 54 S10G17 29.81S Albany MOCLDY 72 49 44 S15G24 29.76S $$ NJZ001-105-106-008-010-013-015-019>022-104-242300- NEW JERSEY CITY SKY/WX TMP DP RH WIND PRES REMARKS Newark/Liberty MOCLDY 68 53 58 S10 29.84F Teterboro PTCLDY 68 53 58 S8 29.84S Caldwell MOCLDY 69 53 56 SE8 29.84S Somerville NOT AVBL Linden NOT AVBL Sussex CLEAR 71 51 49 S6G17 29.82F Andover N/A 70 50 49 VRB7 29.82F Trenton MOCLDY 72 53 51 SW14 29.84F Millville MOCLDY 66 57 72 S10 29.88S Atlantic City PTCLDY 64 55 72 S9G18 29.89F Wrightstown PTCLDY 69 55 60 S9 29.84R Toms River PTCLDY 66 57 72 S14G22 29.89R Belmar PTCLDY 65 55 70 S10 29.89R $$ PAZ047>061-062-071-242300- EASTERN PENNSYLVANIA CITY SKY/WX TMP DP RH WIND PRES REMARKS Philadelphia MOCLDY 70 54 56 S10 29.86S Allentown CLEAR 73 51 46 S17 29.81S Scranton CLEAR 72 50 45 S10G22 29.77S $$ CTZ002-004>006-009-010-012-RIZ004-006-007-MAZ004-011-015-242300- SOUTHERN NEW ENGLAND IN CT CITY SKY/WX TMP DP RH WIND PRES REMARKS Bradley INTL MOCLDY 66 53 63 S18G26 29.85S Hartford CLEAR 66 53 63 S13G22 29.87R Danbury CLEAR 64 51 62 S10 29.88S Wtrbury/Oxford PTCLDY 63 50 63 SW14G23 29.88F Bridgeport CLEAR 59 50 72 S10 29.89S Meriden CLEAR 64 51 62 S13 29.88S New Haven PTCLDY 56 48 74 S6 29.90R Chester N/A 63 52 67 S7 29.91R Groton CLEAR 49 45 86 S9 29.92R Wilimantic CLEAR 67 54 63 S10G23 29.89S IN RI CITY SKY/WX TMP DP RH WIND PRES REMARKS Providence PTCLDY 63 51 65 S12 29.91R Block Island MOCLDY 51 48 89 S14 29.94S Westerly CLEAR 53 46 77 S9 29.93S IN MA CITY SKY/WX TMP DP RH WIND PRES REMARKS Boston PTCLDY 64 52 64 S17G24 29.86R Worcester CLEAR 64 46 52 S13G24 29.86R Westfield CLEAR 66 52 60 S16G23 29.83R Provincetown CLEAR 54 48 80 S15 29.92S Nantucket CLEAR 49 45 86 S18 29.96S $$ ANZ330-335-338-340-345-350-353-355-242300- COASTAL MARINE OBSERVATIONS STATION/POSITION TIME SKY/WX TEMP WIND PRES VSBY WAVE AIR SEA DIR/SP/G HT/PER (UTC) (F) (DEG/KT/KT) (MB) (MI) (FT/S) NY HARB ENTRANCE 2050 50 45 190/ 16/ 17 1011.6 4/11 20 S FIRE ISLAND 2150 49 44 170/ 10/ 12 1012.7 3/11 GREAT SOUTH BAY NOT AVBL 23 SSW MONTAUK P 2050 50 44 1013.8 3/11 15 E BARNEGAT LI 2130 45 N/A 3/11 HUDSON CANYON 2050 48 1013.8 4/11 KINGS POINT 2142 57 43 1011.1 EXECUTION ROCKS NOT AVBL CENTRAL LI SOUND 2130 49 180/ 10/ 10 N/A 1 EASTERN LI SOUND NOT AVBL ROBBINS REEF 2142 56 160/ 16/ 17 1011.0 $$ >>>>>>>>>>>>>>>>>>>>>>>>>>>> KEY <<<<<<<<<<<<<<<<<<<<<<<<<<< > < > SKY/WX - Sky Condition/Present Weather < > TMP - Temperature in Fahrenheit < > DP - Dew Point in Fahrenheit < > RH - Relative Humidity in Percent < > WIND - Direction (from) and Speed in MPH < > PRES - Mean Sea Level Pressure (inches of Hg) < > WCI - Wind Chill Index < > VSB - VISIBILITY IN MILES < > HX - HEAT INDEX < > TC - TEMPERATURE IN CELSIUS < > VRB - VARIABLE WIND DIRECTION < > < >>>>>>>>>>>>>>>>>>>>>>>>>>>> KEY <<<<<<<<<<<<<<<<<<<<<<<<<<<

USA.gov is the U.S. government's official web portal to all federal, state and local government web resources and services.